Time,TemperatureF,DewpointF,PressureIn,WindDirection,WindDirectionDegrees,WindSpeedMPH,WindSpeedGustMPH,Humidity,HourlyPrecipIn,Conditions,Clouds,dailyrainin,SoftwareType,DateUTC
2013-09-25 00:03:00,72.6,72.0,29.82,SSW,202,0.0,0.0,98,0.00,,---,0.00,VWS V14.01,2013-09-25 05:03:00,
2013-09-25 00:08:00,72.4,71.8,29.82,SSW,202,0.0,0.0,98,0.00,,---,0.00,VWS V14.01,2013-09-25 05:08:00,
2013-09-25 00:13:00,72.4,71.8,29.82,SSW,202,0.0,0.0,98,0.00,,---,0.00,VWS V14.01,2013-09-25 05:13:00,
2013-09-25 00:18:00,72.4,71.8,29.82,SSW,202,0.0,0.0,98,0.00,,---,0.00,VWS V14.01,2013-09-25 05:18:00,
2013-09-25 00:23:00,72.4,71.8,29.82,SSW,202,0.0,0.0,98,0.00,,---,0.00,VWS V14.01,2013-09-25 05:23:00,
2013-09-25 00:28:00,72.4,71.8,29.82,SSW,202,0.0,0.0,98,0.00,,---,0.00,VWS V14.01,2013-09-25 05:28:00,
2013-09-25 00:33:00,72.4,71.8,29.82,SSW,202,0.0,0.0,98,0.00,,---,0.00,VWS V14.01,2013-09-25 05:33:00,
2013-09-25 00:38:00,72.4,71.8,29.82,SSW,202,0.0,0.0,98,0.00,,---,0.00,VWS V14.01,2013-09-25 05:38:00,
2013-09-25 00:43:00,72.4,71.8,29.82,SSW,202,0.0,0.0,98,0.00,,---,0.00,VWS V14.01,2013-09-25 05:43:00,
2013-09-25 00:48:00,72.4,71.8,29.82,SSW,202,0.0,0.0,98,0.00,,---,0.00,VWS V14.01,2013-09-25 05:48:00,
2013-09-25 00:53:00,72.2,71.7,29.82,SSW,202,0.0,0.0,98,0.00,,---,0.00,VWS V14.01,2013-09-25 05:53:00,
2013-09-25 00:58:00,72.2,71.7,29.82,SSW,202,0.0,0.0,98,0.00,,---,0.00,VWS V14.01,2013-09-25 05:58:00,
2013-09-25 01:03:00,72.2,71.7,29.82,SSW,202,0.0,0.0,98,0.00,,---,0.00,VWS V14.01,2013-09-25 06:03:00,
2013-09-25 01:08:00,72.2,71.7,29.82,SSW,202,0.0,0.0,98,0.00,,---,0.00,VWS V14.01,2013-09-25 06:08:00,
2013-09-25 01:13:00,72.2,71.7,29.82,SSW,202,0.0,0.0,98,0.00,,---,0.00,VWS V14.01,2013-09-25 06:13:00,
2013-09-25 01:18:00,72.2,71.7,29.82,SSW,202,0.0,0.0,98,0.00,,---,0.00,VWS V14.01,2013-09-25 06:18:00,
2013-09-25 01:23:00,72.2,71.7,29.82,SSW,202,0.0,0.0,98,0.00,,---,0.00,VWS V14.01,2013-09-25 06:23:00,
2013-09-25 01:28:00,72.2,71.7,29.82,SSW,202,0.0,0.0,98,0.00,,---,0.00,VWS V14.01,2013-09-25 06:28:00,
2013-09-25 01:33:00,72.2,71.7,29.82,SSW,202,0.0,0.0,98,0.00,,---,0.00,VWS V14.01,2013-09-25 06:33:00,
2013-09-25 01:38:00,72.2,71.7,29.82,SSW,202,0.0,0.0,98,0.00,,---,0.00,VWS V14.01,2013-09-25 06:38:00,
2013-09-25 01:43:00,72.1,71.5,29.82,SSW,202,0.0,0.0,98,0.00,,---,0.00,VWS V14.01,2013-09-25 06:43:00,
2013-09-25 01:48:00,72.1,71.5,29.82,SSW,202,0.0,0.0,98,0.00,,---,0.00,VWS V14.01,2013-09-25 06:48:00,
2013-09-25 01:53:00,72.1,71.5,29.82,SSW,202,0.0,0.0,98,0.00,,---,0.00,VWS V14.01,2013-09-25 06:53:00,
2013-09-25 01:58:00,72.1,71.5,29.82,SSW,202,0.0,0.0,98,0.00,,---,0.00,VWS V14.01,2013-09-25 06:58:00,
2013-09-25 02:03:00,71.9,71.3,29.82,SSW,202,0.0,0.0,98,0.00,,---,0.00,VWS V14.01,2013-09-25 07:03:00,
2013-09-25 02:08:00,71.9,71.3,29.82,SSW,202,0.0,0.0,98,0.00,,---,0.00,VWS V14.01,2013-09-25 07:08:00,
2013-09-25 02:13:00,71.9,71.3,29.82,SSW,202,0.0,0.0,98,0.00,,---,0.00,VWS V14.01,2013-09-25 07:13:00,
2013-09-25 02:18:00,71.7,71.1,29.82,SSW,202,0.0,0.0,98,0.00,,---,0.00,VWS V14.01,2013-09-25 07:18:00,
2013-09-25 02:23:00,71.7,71.1,29.82,SSW,202,0.0,0.0,98,0.00,,---,0.00,VWS V14.01,2013-09-25 07:23:00,
2013-09-25 02:28:00,71.5,70.9,29.82,SSW,202,0.0,0.0,98,0.00,,---,0.00,VWS V14.01,2013-09-25 07:28:00,
2013-09-25 02:33:00,71.5,70.9,29.82,SSW,202,0.0,0.0,98,0.00,,---,0.00,VWS V14.01,2013-09-25 07:33:00,
2013-09-25 02:38:00,71.3,70.8,29.82,SSW,202,0.0,0.0,98,0.00,,---,0.00,VWS V14.01,2013-09-25 07:38:00,
2013-09-25 02:43:00,71.3,70.8,29.82,SSW,202,0.0,0.0,98,0.00,,---,0.00,VWS V14.01,2013-09-25 07:43:00,
2013-09-25 02:48:00,71.2,70.6,29.82,SSW,202,0.0,0.0,98,0.00,,---,0.00,VWS V14.01,2013-09-25 07:48:00,
2013-09-25 02:53:00,71.2,70.6,29.82,SSW,202,0.0,0.0,98,0.00,,---,0.00,VWS V14.01,2013-09-25 07:53:00,
2013-09-25 02:58:00,71.0,70.4,29.82,SSW,202,0.0,0.0,98,0.00,,---,0.00,VWS V14.01,2013-09-25 07:58:00,
2013-09-25 03:03:00,70.8,70.2,29.82,SSW,202,0.0,0.0,98,0.00,,---,0.00,VWS V14.01,2013-09-25 08:03:00,
2013-09-25 03:08:00,70.8,70.2,29.82,SSW,202,0.0,0.0,98,0.00,,---,0.00,VWS V14.01,2013-09-25 08:08:00,
2013-09-25 03:13:00,70.8,70.2,29.82,SSW,202,0.0,0.0,98,0.00,,---,0.00,VWS V14.01,2013-09-25 08:13:00,
2013-09-25 03:18:00,70.6,70.0,29.82,SSW,202,0.0,0.0,98,0.00,,---,0.00,VWS V14.01,2013-09-25 08:18:00,
2013-09-25 03:23:00,70.4,69.8,29.82,SSW,202,0.0,0.0,98,0.00,,---,0.00,VWS V14.01,2013-09-25 08:23:00,
2013-09-25 03:28:00,70.4,69.8,29.82,SSW,202,0.0,0.0,98,0.00,,---,0.00,VWS V14.01,2013-09-25 08:28:00,
2013-09-25 03:33:00,70.3,69.7,29.82,NW,315,0.0,0.0,98,0.00,,---,0.00,VWS V14.01,2013-09-25 08:33:00,
2013-09-25 03:38:00,70.3,69.7,29.82,NW,315,0.0,0.0,98,0.00,,---,0.00,VWS V14.01,2013-09-25 08:38:00,
2013-09-25 03:43:00,70.3,69.7,29.82,NW,315,0.0,0.0,98,0.00,,---,0.00,VWS V14.01,2013-09-25 08:43:00,
2013-09-25 03:49:00,70.3,69.7,29.82,NNW,338,0.0,0.0,98,0.00,,---,0.00,VWS V14.01,2013-09-25 08:49:00,
2013-09-25 03:54:00,70.3,69.7,29.82,NNW,338,0.0,0.0,98,0.00,,---,0.00,VWS V14.01,2013-09-25 08:54:00,
2013-09-25 03:59:00,70.3,69.7,29.82,NW,315,0.0,0.0,98,0.00,,---,0.00,VWS V14.01,2013-09-25 08:59:00,
2013-09-25 04:04:00,70.3,69.7,29.82,NW,315,0.0,0.0,98,0.00,,---,0.00,VWS V14.01,2013-09-25 09:04:00,
2013-09-25 04:09:00,70.3,69.7,29.82,NW,315,0.0,0.0,98,0.00,,---,0.00,VWS V14.01,2013-09-25 09:09:00,
2013-09-25 04:14:00,70.3,69.7,29.82,NW,315,0.0,0.0,98,0.00,,---,0.00,VWS V14.01,2013-09-25 09:14:00,
2013-09-25 04:19:00,70.3,69.7,29.82,NW,315,0.0,0.0,98,0.00,,---,0.00,VWS V14.01,2013-09-25 09:19:00,
2013-09-25 04:24:00,70.3,69.7,29.82,NW,315,0.0,0.0,98,0.00,,---,0.00,VWS V14.01,2013-09-25 09:24:00,
2013-09-25 04:29:00,70.3,69.7,29.82,NW,315,0.0,0.0,98,0.00,,---,0.00,VWS V14.01,2013-09-25 09:29:00,
2013-09-25 04:34:00,70.3,69.7,29.82,NW,315,0.0,0.0,98,0.00,,---,0.00,VWS V14.01,2013-09-25 09:34:00,
2013-09-25 04:39:00,70.3,69.7,29.82,West,270,0.0,0.0,98,0.00,,---,0.00,VWS V14.01,2013-09-25 09:39:00,
2013-09-25 04:44:00,70.3,69.7,29.82,West,270,0.0,0.0,98,0.00,,---,0.00,VWS V14.01,2013-09-25 09:44:00,
2013-09-25 04:49:00,70.4,69.8,29.82,West,270,0.0,0.0,98,0.00,,---,0.00,VWS V14.01,2013-09-25 09:49:00,
2013-09-25 04:54:00,70.4,69.8,29.82,West,270,0.0,0.0,98,0.00,,---,0.00,VWS V14.01,2013-09-25 09:54:00,
2013-09-25 04:59:00,70.4,69.8,29.82,West,270,0.0,0.0,98,0.00,,---,0.00,VWS V14.01,2013-09-25 09:59:00,
2013-09-25 05:04:00,70.6,70.0,29.82,West,270,0.0,0.0,98,0.00,,---,0.00,VWS V14.01,2013-09-25 10:04:00,
2013-09-25 05:09:00,70.6,70.0,29.82,West,270,0.0,0.0,98,0.00,,---,0.00,VWS V14.01,2013-09-25 10:09:00,
2013-09-25 05:14:00,70.6,70.0,29.82,WNW,292,0.0,0.0,98,0.00,,---,0.00,VWS V14.01,2013-09-25 10:14:00,
2013-09-25 05:19:00,70.6,70.0,29.82,WNW,292,0.0,0.0,98,0.00,,---,0.00,VWS V14.01,2013-09-25 10:19:00,
2013-09-25 05:24:00,70.8,70.2,29.82,WNW,292,0.0,0.0,98,0.00,,---,0.00,VWS V14.01,2013-09-25 10:24:00,
2013-09-25 05:29:00,70.8,70.2,29.82,WNW,292,0.0,0.0,98,0.00,,---,0.00,VWS V14.01,2013-09-25 10:29:00,
2013-09-25 05:34:00,70.8,70.2,29.82,WNW,292,0.0,0.0,98,0.00,,---,0.00,VWS V14.01,2013-09-25 10:34:00,
2013-09-25 05:39:00,70.8,70.2,29.82,WNW,292,0.0,0.0,98,0.00,,---,0.00,VWS V14.01,2013-09-25 10:39:00,
2013-09-25 05:44:00,70.8,70.2,29.82,West,270,0.0,0.0,98,0.00,,---,0.00,VWS V14.01,2013-09-25 10:44:00,
2013-09-25 05:49:00,70.8,70.2,29.82,West,270,0.0,0.0,98,0.00,,---,0.00,VWS V14.01,2013-09-25 10:49:00,
2013-09-25 05:54:00,70.8,70.2,29.82,West,270,0.0,0.0,98,0.00,,---,0.00,VWS V14.01,2013-09-25 10:54:00,
2013-09-25 05:59:00,70.6,70.0,29.82,West,270,0.0,0.0,98,0.00,,---,0.00,VWS V14.01,2013-09-25 10:59:00,
2013-09-25 06:04:00,70.6,70.0,29.82,West,270,0.0,0.0,98,0.00,,---,0.00,VWS V14.01,2013-09-25 11:04:00,
2013-09-25 06:09:00,70.6,70.0,29.82,West,270,0.0,0.0,98,0.00,,---,0.00,VWS V14.01,2013-09-25 11:09:00,
2013-09-25 06:14:00,70.6,70.0,29.82,West,270,0.0,0.0,98,0.00,,---,0.00,VWS V14.01,2013-09-25 11:14:00,
2013-09-25 06:19:00,70.6,70.0,29.82,West,270,0.0,0.0,98,0.00,,---,0.00,VWS V14.01,2013-09-25 11:19:00,
2013-09-25 06:24:00,70.6,70.0,29.82,West,270,0.0,0.0,98,0.00,,---,0.00,VWS V14.01,2013-09-25 11:24:00,
2013-09-25 06:29:00,70.6,70.0,29.82,West,270,0.0,0.0,98,0.00,,---,0.00,VWS V14.01,2013-09-25 11:29:00,
2013-09-25 06:34:00,70.6,70.0,29.82,West,270,0.0,0.0,98,0.00,,---,0.00,VWS V14.01,2013-09-25 11:34:00,
2013-09-25 06:39:00,70.6,70.0,29.82,West,270,0.0,0.0,98,0.00,,---,0.00,VWS V14.01,2013-09-25 11:39:00,
2013-09-25 06:44:00,70.4,69.8,29.82,WNW,292,0.0,0.0,98,0.00,,---,0.00,VWS V14.01,2013-09-25 11:44:00,
2013-09-25 06:49:00,70.4,69.8,29.82,WNW,292,0.0,0.0,98,0.00,,---,0.00,VWS V14.01,2013-09-25 11:49:00,
2013-09-25 06:54:00,70.4,69.8,29.82,WNW,292,0.0,0.0,98,0.00,,---,0.00,VWS V14.01,2013-09-25 11:54:00,
2013-09-25 06:59:00,70.3,69.7,29.82,WNW,292,0.0,0.0,98,0.00,,---,0.00,VWS V14.01,2013-09-25 11:59:00,
2013-09-25 07:04:00,70.3,69.7,29.82,WNW,292,0.0,0.0,98,0.00,,---,0.00,VWS V14.01,2013-09-25 12:04:00,
2013-09-25 07:09:00,70.3,69.7,29.85,WNW,292,0.0,0.0,98,0.00,,---,0.00,VWS V14.01,2013-09-25 12:09:00,
2013-09-25 07:14:00,70.3,69.7,29.85,WNW,292,0.0,0.0,98,0.00,,---,0.00,VWS V14.01,2013-09-25 12:14:00,
2013-09-25 07:19:00,70.4,69.8,29.85,WNW,292,0.0,0.0,98,0.00,,---,0.00,VWS V14.01,2013-09-25 12:19:00,
2013-09-25 07:24:00,70.4,69.8,29.82,WNW,292,0.0,0.0,98,0.00,,---,0.00,VWS V14.01,2013-09-25 12:24:00,
2013-09-25 07:27:00,70.3,69.7,29.82,WNW,292,0.0,0.0,98,0.00,,---,0.00,VWS V14.01,2013-09-25 12:27:00,
2013-09-25 07:32:00,70.3,69.7,29.82,WNW,292,0.0,0.0,98,0.00,,---,0.00,VWS V14.01,2013-09-25 12:32:00,
2013-09-25 07:37:00,70.4,69.8,29.82,WNW,292,0.0,0.0,98,0.00,,---,0.00,VWS V14.01,2013-09-25 12:37:00,
2013-09-25 07:42:00,70.4,69.8,29.85,WNW,292,0.0,0.0,98,0.00,,---,0.00,VWS V14.01,2013-09-25 12:42:00,
2013-09-25 07:47:00,70.4,69.8,29.85,WNW,292,0.0,0.0,98,0.00,,---,0.00,VWS V14.01,2013-09-25 12:47:00,
2013-09-25 07:52:00,70.4,69.8,29.85,WNW,292,0.0,0.0,98,0.00,,---,0.00,VWS V14.01,2013-09-25 12:52:00,
2013-09-25 07:57:00,70.4,69.8,29.85,NNW,338,0.0,0.0,98,0.00,,---,0.00,VWS V14.01,2013-09-25 12:57:00,
2013-09-25 08:02:00,70.4,69.8,29.85,WNW,292,0.0,0.0,98,0.00,,---,0.00,VWS V14.01,2013-09-25 13:02:00,
2013-09-25 08:07:00,70.6,70.0,29.85,WNW,292,0.0,0.0,98,0.00,,---,0.00,VWS V14.01,2013-09-25 13:07:00,
2013-09-25 08:12:00,70.6,70.0,29.85,WNW,292,0.0,0.0,98,0.00,,---,0.00,VWS V14.01,2013-09-25 13:12:00,
2013-09-25 08:17:00,70.8,70.2,29.85,WNW,292,0.0,0.0,98,0.00,,---,0.00,VWS V14.01,2013-09-25 13:17:00,
2013-09-25 08:22:00,70.8,70.2,29.85,WNW,292,0.0,0.0,98,0.00,,---,0.00,VWS V14.01,2013-09-25 13:22:00,
2013-09-25 08:27:00,70.8,70.2,29.85,WNW,292,0.0,0.0,98,0.00,,---,0.00,VWS V14.01,2013-09-25 13:27:00,
2013-09-25 08:32:00,70.8,70.2,29.85,NW,315,0.0,0.0,98,0.00,,---,0.00,VWS V14.01,2013-09-25 13:32:00,
2013-09-25 08:37:00,71.0,70.4,29.85,NW,315,0.0,0.0,98,0.00,,---,0.00,VWS V14.01,2013-09-25 13:37:00,
2013-09-25 08:42:00,71.2,70.6,29.85,NW,315,0.0,0.0,98,0.00,,---,0.00,VWS V14.01,2013-09-25 13:42:00,
2013-09-25 08:47:00,71.3,70.8,29.85,NW,315,0.0,0.0,98,0.00,,---,0.00,VWS V14.01,2013-09-25 13:47:00,
2013-09-25 08:52:00,71.3,70.8,29.85,NW,315,0.0,0.0,98,0.00,,---,0.00,VWS V14.01,2013-09-25 13:52:00,
2013-09-25 08:57:00,71.5,70.9,29.85,NW,315,0.0,0.0,98,0.00,,---,0.00,VWS V14.01,2013-09-25 13:57:00,
2013-09-25 09:02:00,71.7,71.1,29.85,NW,315,0.0,0.0,98,0.00,,---,0.00,VWS V14.01,2013-09-25 14:02:00,
2013-09-25 09:07:00,71.9,71.3,29.85,ENE,68,0.0,0.0,98,0.00,,---,0.00,VWS V14.01,2013-09-25 14:07:00,
2013-09-25 09:12:00,71.9,71.3,29.85,ENE,68,0.0,0.0,98,0.00,,---,0.00,VWS V14.01,2013-09-25 14:12:00,
2013-09-25 09:17:00,72.2,71.7,29.85,ENE,68,0.0,0.0,98,0.00,,---,0.00,VWS V14.01,2013-09-25 14:17:00,
2013-09-25 09:22:00,72.2,71.7,29.85,ENE,68,0.0,0.0,98,0.00,,---,0.00,VWS V14.01,2013-09-25 14:22:00,
2013-09-25 09:27:00,72.4,71.8,29.85,ENE,68,0.0,0.0,98,0.00,,---,0.00,VWS V14.01,2013-09-25 14:27:00,
2013-09-25 09:32:00,72.6,72.0,29.85,ENE,68,0.0,0.0,98,0.00,,---,0.00,VWS V14.01,2013-09-25 14:32:00,
2013-09-25 09:37:00,72.8,72.2,29.85,ESE,112,0.0,0.0,98,0.00,,---,0.00,VWS V14.01,2013-09-25 14:37:00,
2013-09-25 09:42:00,73.0,72.4,29.85,South,180,0.0,0.0,98,0.00,,---,0.00,VWS V14.01,2013-09-25 14:42:00,
2013-09-25 09:47:00,73.0,72.4,29.85,SSW,202,0.0,0.0,98,0.00,,---,0.00,VWS V14.01,2013-09-25 14:47:00,
2013-09-25 09:52:00,73.1,72.6,29.85,SW,225,0.0,0.0,98,0.00,,---,0.00,VWS V14.01,2013-09-25 14:52:00,
2013-09-25 09:57:00,73.3,72.7,29.85,East,90,0.0,0.0,98,0.00,,---,0.00,VWS V14.01,2013-09-25 14:57:00,
2013-09-25 10:03:00,73.5,72.9,29.85,SSE,158,0.0,0.0,98,0.00,,---,0.00,VWS V14.01,2013-09-25 15:03:00,
2013-09-25 10:08:00,73.7,73.1,29.85,NW,315,0.0,0.0,98,0.00,,---,0.00,VWS V14.01,2013-09-25 15:08:00,
2013-09-25 10:13:00,73.7,73.1,29.85,East,90,0.0,0.0,98,0.00,,---,0.00,VWS V14.01,2013-09-25 15:13:00,
2013-09-25 10:18:00,73.7,73.1,29.85,ESE,112,0.0,0.0,98,0.00,,---,0.00,VWS V14.01,2013-09-25 15:18:00,
2013-09-25 10:23:00,74.0,73.4,29.85,SSW,202,0.0,0.0,98,0.00,,---,0.00,VWS V14.01,2013-09-25 15:23:00,
2013-09-25 10:28:00,74.2,73.6,29.85,NNE,22,0.0,0.0,98,0.00,,---,0.00,VWS V14.01,2013-09-25 15:28:00,
2013-09-25 10:33:00,74.6,73.7,29.85,ESE,112,1.3,2.2,97,0.00,,---,0.00,VWS V14.01,2013-09-25 15:33:00,
2013-09-25 10:38:00,74.9,73.7,29.85,ESE,112,0.0,0.0,96,0.00,,---,0.00,VWS V14.01,2013-09-25 15:38:00,
2013-09-25 10:43:00,75.7,74.4,29.85,WNW,292,0.9,0.9,96,0.00,,---,0.00,VWS V14.01,2013-09-25 15:43:00,
2013-09-25 10:48:00,76.0,75.1,29.85,WSW,248,0.0,0.0,97,0.00,,---,0.00,VWS V14.01,2013-09-25 15:48:00,
2013-09-25 10:53:00,76.4,74.5,29.85,ESE,112,1.3,2.5,94,0.00,,---,0.00,VWS V14.01,2013-09-25 15:53:00,
2013-09-25 10:58:00,76.7,74.9,29.85,NE,45,0.0,0.0,94,0.00,,---,0.00,VWS V14.01,2013-09-25 15:58:00,
2013-09-25 11:03:00,76.7,74.6,29.85,NW,315,0.0,0.0,93,0.00,,---,0.00,VWS V14.01,2013-09-25 16:03:00,
2013-09-25 11:08:00,77.1,73.9,29.85,SE,135,2.7,2.7,90,0.00,,---,0.00,VWS V14.01,2013-09-25 16:08:00,
2013-09-25 11:13:00,77.5,74.0,29.85,SSE,158,2.2,2.9,89,0.00,,---,0.00,VWS V14.01,2013-09-25 16:13:00,
2013-09-25 11:18:00,77.6,74.1,29.85,SE,135,2.9,3.6,89,0.00,,---,0.00,VWS V14.01,2013-09-25 16:18:00,
2013-09-25 11:23:00,77.8,73.6,29.85,SE,135,0.0,0.0,87,0.00,,---,0.00,VWS V14.01,2013-09-25 16:23:00,
2013-09-25 11:28:00,78.0,73.5,29.85,SSW,202,0.0,0.0,86,0.00,,---,0.00,VWS V14.01,2013-09-25 16:28:00,
2013-09-25 11:33:00,78.2,72.6,29.85,NW,315,0.0,0.0,83,0.00,,---,0.00,VWS V14.01,2013-09-25 16:33:00,
2013-09-25 11:38:00,78.7,70.5,29.85,NNW,338,0.0,2.0,76,0.00,,---,0.00,VWS V14.01,2013-09-25 16:38:00,
2013-09-25 11:43:00,79.1,71.3,29.85,SSE,158,5.6,5.6,77,0.00,,---,0.00,VWS V14.01,2013-09-25 16:43:00,
2013-09-25 11:48:00,79.6,72.2,29.85,SSW,202,0.0,0.0,78,0.00,,---,0.00,VWS V14.01,2013-09-25 16:48:00,
2013-09-25 11:53:00,80.2,71.9,29.85,WNW,292,0.0,1.3,76,0.00,,---,0.00,VWS V14.01,2013-09-25 16:53:00,
2013-09-25 11:58:00,80.7,71.7,29.85,SSE,158,2.7,2.9,74,0.00,,---,0.00,VWS V14.01,2013-09-25 16:58:00,
2013-09-25 12:03:00,81.1,68.6,29.85,NNW,338,2.0,2.0,66,0.00,,---,0.00,VWS V14.01,2013-09-25 17:03:00,
2013-09-25 12:08:00,81.2,67.9,29.85,NW,315,0.0,0.0,64,0.00,,---,0.00,VWS V14.01,2013-09-25 17:08:00,
2013-09-25 12:13:00,81.8,68.9,29.85,WNW,292,0.9,2.0,65,0.00,,---,0.00,VWS V14.01,2013-09-25 17:13:00,
2013-09-25 12:18:00,82.1,65.9,29.85,WNW,292,1.6,2.9,58,0.00,,---,0.00,VWS V14.01,2013-09-25 17:18:00,
2013-09-25 12:23:00,82.7,64.9,29.82,NW,315,2.2,2.2,55,0.00,,---,0.00,VWS V14.01,2013-09-25 17:23:00,
2013-09-25 12:28:00,82.9,66.1,29.82,NW,315,0.0,0.0,57,0.00,,---,0.00,VWS V14.01,2013-09-25 17:28:00,
2013-09-25 12:33:00,83.6,67.3,29.82,WNW,292,1.1,1.1,58,0.00,,---,0.00,VWS V14.01,2013-09-25 17:33:00,
2013-09-25 12:38:00,83.6,66.8,29.82,SSW,202,0.0,0.9,57,0.00,,---,0.00,VWS V14.01,2013-09-25 17:38:00,
2013-09-25 12:43:00,83.8,66.9,29.82,NNW,338,2.0,2.0,57,0.00,,---,0.00,VWS V14.01,2013-09-25 17:43:00,
2013-09-25 12:48:00,83.4,61.1,29.82,WSW,248,1.6,1.6,47,0.00,,---,0.00,VWS V14.01,2013-09-25 17:48:00,
2013-09-25 12:53:00,83.4,57.9,29.82,WNW,292,3.4,3.4,42,0.00,,---,0.00,VWS V14.01,2013-09-25 17:53:00,
2013-09-25 12:58:00,83.4,60.5,29.82,NW,315,2.0,2.5,46,0.00,,---,0.00,VWS V14.01,2013-09-25 17:58:00,
2013-09-25 13:03:00,83.2,58.4,29.82,NW,315,3.6,3.6,43,0.00,,---,0.00,VWS V14.01,2013-09-25 18:03:00,
2013-09-25 13:08:00,83.2,59.1,29.82,North,0,1.3,1.3,44,0.00,,---,0.00,VWS V14.01,2013-09-25 18:08:00,
2013-09-25 13:13:00,83.2,59.1,29.82,West,270,1.1,1.1,44,0.00,,---,0.00,VWS V14.01,2013-09-25 18:13:00,
2013-09-25 13:18:00,83.4,61.1,29.82,SW,225,1.1,1.1,47,0.00,,---,0.00,VWS V14.01,2013-09-25 18:18:00,
2013-09-25 13:23:00,83.6,60.0,29.82,SSW,202,0.0,1.1,45,0.00,,---,0.00,VWS V14.01,2013-09-25 18:23:00,
2013-09-25 13:28:00,84.1,62.3,29.82,SSE,158,0.9,0.9,48,0.00,,---,0.00,VWS V14.01,2013-09-25 18:28:00,
2013-09-25 13:34:00,84.3,60.7,29.82,WNW,292,2.0,2.2,45,0.00,,---,0.00,VWS V14.01,2013-09-25 18:34:00,
2013-09-25 13:39:00,84.1,59.9,29.82,NNW,338,1.6,3.1,44,0.00,,---,0.00,VWS V14.01,2013-09-25 18:39:00,
2013-09-25 13:44:00,83.9,59.1,29.82,NNW,338,2.5,2.5,43,0.00,,---,0.00,VWS V14.01,2013-09-25 18:44:00,
2013-09-25 13:49:00,84.5,58.2,29.82,NNW,338,2.7,2.9,41,0.00,,---,0.00,VWS V14.01,2013-09-25 18:49:00,
2013-09-25 13:54:00,84.8,59.2,29.82,West,270,2.0,2.9,42,0.00,,---,0.00,VWS V14.01,2013-09-25 18:54:00,
2013-09-25 13:59:00,84.7,57.7,29.82,West,270,2.9,2.9,40,0.00,,---,0.00,VWS V14.01,2013-09-25 18:59:00,
2013-09-25 14:04:00,84.8,58.5,29.82,WNW,292,2.5,2.5,41,0.00,,---,0.00,VWS V14.01,2013-09-25 19:04:00,
2013-09-25 14:09:00,84.7,58.4,29.82,WNW,292,3.6,4.3,41,0.00,,---,0.00,VWS V14.01,2013-09-25 19:09:00,
2013-09-25 14:14:00,84.7,58.4,29.82,NW,315,2.5,2.5,41,0.00,,---,0.00,VWS V14.01,2013-09-25 19:14:00,
2013-09-25 14:19:00,84.1,57.2,29.82,WNW,292,1.3,2.5,40,0.00,,---,0.00,VWS V14.01,2013-09-25 19:19:00,
2013-09-25 14:24:00,84.5,57.5,29.82,West,270,3.1,3.4,40,0.00,,---,0.00,VWS V14.01,2013-09-25 19:24:00,
2013-09-25 14:29:00,84.8,58.5,29.82,WNW,292,2.5,3.6,41,0.00,,---,0.00,VWS V14.01,2013-09-25 19:29:00,
2013-09-25 14:34:00,84.8,57.2,29.82,West,270,0.9,3.1,39,0.00,,---,0.00,VWS V14.01,2013-09-25 19:34:00,
2013-09-25 14:39:00,84.5,57.5,29.82,West,270,2.5,3.1,40,0.00,,---,0.00,VWS V14.01,2013-09-25 19:39:00,
2013-09-25 14:44:00,84.7,57.7,29.82,West,270,1.3,2.7,40,0.00,,---,0.00,VWS V14.01,2013-09-25 19:44:00,
2013-09-25 14:49:00,84.5,57.5,29.82,West,270,2.2,3.4,40,0.00,,---,0.00,VWS V14.01,2013-09-25 19:49:00,
2013-09-25 14:54:00,84.5,58.2,29.82,West,270,0.0,2.9,41,0.00,,---,0.00,VWS V14.01,2013-09-25 19:54:00,
2013-09-25 14:59:00,84.3,57.4,29.82,West,270,1.6,3.1,40,0.00,,---,0.00,VWS V14.01,2013-09-25 19:59:00,
2013-09-25 15:04:00,84.1,57.2,29.82,NW,315,3.4,3.8,40,0.00,,---,0.00,VWS V14.01,2013-09-25 20:04:00,
2013-09-25 15:09:00,84.1,57.9,29.82,WSW,248,3.6,4.9,41,0.00,,---,0.00,VWS V14.01,2013-09-25 20:09:00,
2013-09-25 15:14:00,83.8,57.6,29.82,WSW,248,0.9,0.9,41,0.00,,---,0.00,VWS V14.01,2013-09-25 20:14:00,
2013-09-25 15:19:00,83.4,57.3,29.82,West,270,1.1,1.1,41,0.00,,---,0.00,VWS V14.01,2013-09-25 20:19:00,
2013-09-25 15:24:00,83.2,58.4,29.82,NW,315,0.0,0.0,43,0.00,,---,0.00,VWS V14.01,2013-09-25 20:24:00,
2013-09-25 15:29:00,83.0,58.3,29.82,WNW,292,2.9,2.9,43,0.00,,---,0.00,VWS V14.01,2013-09-25 20:29:00,
2013-09-25 15:34:00,82.9,60.6,29.82,SSW,202,0.0,0.0,47,0.00,,---,0.00,VWS V14.01,2013-09-25 20:34:00,
2013-09-25 15:39:00,82.9,60.6,29.82,ENE,68,5.4,6.0,47,0.00,,---,0.00,VWS V14.01,2013-09-25 20:39:00,
2013-09-25 15:44:00,83.0,59.5,29.82,North,0,4.0,4.0,45,0.00,,---,0.00,VWS V14.01,2013-09-25 20:44:00,
2013-09-25 15:49:00,83.4,57.9,29.82,NNE,22,2.7,3.1,42,0.00,,---,0.00,VWS V14.01,2013-09-25 20:49:00,
2013-09-25 15:54:00,83.4,57.9,29.82,WNW,292,3.8,3.8,42,0.00,,---,0.00,VWS V14.01,2013-09-25 20:54:00,
2013-09-25 15:59:00,83.4,57.9,29.82,NNW,338,2.9,3.6,42,0.00,,---,0.00,VWS V14.01,2013-09-25 20:59:00,
2013-09-25 16:04:00,83.4,57.9,29.82,North,0,3.6,3.6,42,0.00,,---,0.00,VWS V14.01,2013-09-25 21:04:00,
2013-09-25 16:09:00,83.4,57.9,29.82,WNW,292,0.0,0.0,42,0.00,,---,0.00,VWS V14.01,2013-09-25 21:09:00,
2013-09-25 16:14:00,83.0,57.6,29.82,WNW,292,2.7,3.6,42,0.00,,---,0.00,VWS V14.01,2013-09-25 21:14:00,
2013-09-25 16:19:00,83.0,57.6,29.82,NW,315,1.3,1.3,42,0.00,,---,0.00,VWS V14.01,2013-09-25 21:19:00,
2013-09-25 16:24:00,83.0,57.6,29.82,WNW,292,2.5,3.4,42,0.00,,---,0.00,VWS V14.01,2013-09-25 21:24:00,
2013-09-25 16:29:00,83.0,57.6,29.82,WNW,292,2.7,3.1,42,0.00,,---,0.00,VWS V14.01,2013-09-25 21:29:00,
2013-09-25 16:35:00,82.0,57.3,29.82,NNW,338,2.0,2.0,43,0.00,,---,0.00,VWS V14.01,2013-09-25 21:35:00,
2013-09-25 16:40:00,82.0,57.3,29.82,WNW,292,0.0,0.0,43,0.00,,---,0.00,VWS V14.01,2013-09-25 21:40:00,
2013-09-25 16:45:00,81.6,60.0,29.82,WNW,292,4.3,6.0,48,0.00,,---,0.00,VWS V14.01,2013-09-25 21:45:00,
2013-09-25 16:50:00,81.2,57.3,29.82,WNW,292,0.0,1.6,44,0.00,,---,0.00,VWS V14.01,2013-09-25 21:50:00,
2013-09-25 16:55:00,80.5,57.9,29.82,WSW,248,0.9,1.3,46,0.00,,---,0.00,VWS V14.01,2013-09-25 21:55:00,
2013-09-25 17:00:00,79.6,59.4,29.82,SW,225,0.0,0.0,50,0.00,,---,0.00,VWS V14.01,2013-09-25 22:00:00,
2013-09-25 17:05:00,79.8,57.8,29.82,WNW,292,2.2,3.4,47,0.00,,---,0.00,VWS V14.01,2013-09-25 22:05:00,
2013-09-25 17:10:00,80.0,58.5,29.82,WNW,292,2.2,2.5,48,0.00,,---,0.00,VWS V14.01,2013-09-25 22:10:00,
2013-09-25 17:15:00,80.2,58.7,29.82,WNW,292,1.6,2.2,48,0.00,,---,0.00,VWS V14.01,2013-09-25 22:15:00,
2013-09-25 17:20:00,79.8,59.0,29.82,WNW,292,0.0,0.0,49,0.00,,---,0.00,VWS V14.01,2013-09-25 22:20:00,
2013-09-25 17:25:00,79.3,60.7,29.82,WNW,292,0.0,0.0,53,0.00,,---,0.00,VWS V14.01,2013-09-25 22:25:00,
2013-09-25 17:30:00,78.7,62.7,29.82,NNW,338,0.0,0.0,58,0.00,,---,0.00,VWS V14.01,2013-09-25 22:30:00,
2013-09-25 17:35:00,78.2,61.2,29.82,NNW,338,0.0,0.0,56,0.00,,---,0.00,VWS V14.01,2013-09-25 22:35:00,
2013-09-25 17:40:00,77.8,62.4,29.82,NNW,338,0.0,0.0,59,0.00,,---,0.00,VWS V14.01,2013-09-25 22:40:00,
2013-09-25 17:45:00,77.6,63.1,29.82,NNW,338,0.0,0.0,61,0.00,,---,0.00,VWS V14.01,2013-09-25 22:45:00,
2013-09-25 17:50:00,77.3,62.8,29.82,NNW,338,0.0,0.0,61,0.00,,---,0.00,VWS V14.01,2013-09-25 22:50:00,
2013-09-25 17:55:00,76.9,63.4,29.82,NNW,338,0.0,0.0,63,0.00,,---,0.00,VWS V14.01,2013-09-25 22:55:00,
2013-09-25 18:00:00,76.7,63.2,29.82,NNW,338,0.0,0.0,63,0.00,,---,0.00,VWS V14.01,2013-09-25 23:00:00,
2013-09-25 18:05:00,76.4,63.3,29.82,NNW,338,0.0,0.0,64,0.00,,---,0.00,VWS V14.01,2013-09-25 23:05:00,
2013-09-25 18:10:00,76.2,63.1,29.82,NNW,338,0.0,0.0,64,0.00,,---,0.00,VWS V14.01,2013-09-25 23:10:00,
2013-09-25 18:15:00,76.0,63.8,29.82,NNW,338,0.0,0.0,66,0.00,,---,0.00,VWS V14.01,2013-09-25 23:15:00,
2013-09-25 18:20:00,75.7,63.9,29.82,NNW,338,0.0,0.0,67,0.00,,---,0.00,VWS V14.01,2013-09-25 23:20:00,
2013-09-25 18:25:00,75.3,64.0,29.82,NNW,338,0.0,0.0,68,0.00,,---,0.00,VWS V14.01,2013-09-25 23:25:00,
2013-09-25 18:30:00,75.1,63.8,29.82,NNW,338,0.0,0.0,68,0.00,,---,0.00,VWS V14.01,2013-09-25 23:30:00,
2013-09-25 18:35:00,74.8,63.9,29.82,NNW,338,0.0,0.0,69,0.00,,---,0.00,VWS V14.01,2013-09-25 23:35:00,
2013-09-25 18:40:00,74.6,63.8,29.82,NNW,338,0.0,0.0,69,0.00,,---,0.00,VWS V14.01,2013-09-25 23:40:00,
2013-09-25 18:45:00,74.2,63.8,29.82,NNW,338,0.0,0.0,70,0.00,,---,0.00,VWS V14.01,2013-09-25 23:45:00,
2013-09-25 18:50:00,74.0,63.6,29.82,NNW,338,0.0,0.0,70,0.00,,---,0.00,VWS V14.01,2013-09-25 23:50:00,
2013-09-25 18:55:00,73.7,63.7,29.82,NNW,338,0.0,0.0,71,0.00,,---,0.00,VWS V14.01,2013-09-25 23:55:00,
2013-09-25 19:00:00,73.3,63.0,29.82,NNW,338,0.0,0.0,70,0.00,,---,0.00,VWS V14.01,2013-09-26 00:00:00,
2013-09-25 19:05:00,73.0,63.8,29.82,NNW,338,0.0,0.0,73,0.00,,---,0.00,VWS V14.01,2013-09-26 00:05:00,
2013-09-25 19:10:00,72.8,64.0,29.82,NNW,338,0.0,0.0,74,0.00,,---,0.00,VWS V14.01,2013-09-26 00:10:00,
2013-09-25 19:15:00,72.4,63.3,29.82,NNW,338,0.0,0.0,73,0.00,,---,0.00,VWS V14.01,2013-09-26 00:15:00,
2013-09-25 19:20:00,72.2,64.6,29.82,NNW,338,0.0,0.0,77,0.00,,---,0.00,VWS V14.01,2013-09-26 00:20:00,
2013-09-25 19:25:00,71.9,63.5,29.82,NNW,338,0.0,0.0,75,0.00,,---,0.00,VWS V14.01,2013-09-26 00:25:00,
2013-09-25 19:30:00,71.7,64.1,29.82,NNW,338,0.0,0.0,77,0.00,,---,0.00,VWS V14.01,2013-09-26 00:30:00,
2013-09-25 19:35:00,71.3,64.1,29.82,NNW,338,0.0,0.0,78,0.00,,---,0.00,VWS V14.01,2013-09-26 00:35:00,
2013-09-25 19:40:00,71.3,64.9,29.82,NNW,338,0.0,0.0,80,0.00,,---,0.00,VWS V14.01,2013-09-26 00:40:00,
2013-09-25 19:45:00,71.2,64.3,29.82,NNW,338,0.0,0.0,79,0.00,,---,0.00,VWS V14.01,2013-09-26 00:45:00,
2013-09-25 19:50:00,71.0,64.5,29.82,NNW,338,0.0,0.0,80,0.00,,---,0.00,VWS V14.01,2013-09-26 00:50:00,
2013-09-25 19:55:00,70.6,64.5,29.82,NNW,338,0.0,0.0,81,0.00,,---,0.00,VWS V14.01,2013-09-26 00:55:00,
2013-09-25 20:00:00,70.6,64.5,29.82,NNW,338,0.0,0.0,81,0.00,,---,0.00,VWS V14.01,2013-09-26 01:00:00,
2013-09-25 20:05:00,70.4,65.0,29.82,NNW,338,0.0,0.0,83,0.00,,---,0.00,VWS V14.01,2013-09-26 01:05:00,
2013-09-25 20:10:00,70.3,64.5,29.82,NNW,338,0.0,0.0,82,0.00,,---,0.00,VWS V14.01,2013-09-26 01:10:00,
2013-09-25 20:15:00,70.1,64.3,29.82,NNW,338,0.0,0.0,82,0.00,,---,0.00,VWS V14.01,2013-09-26 01:15:00,
2013-09-25 20:20:00,69.9,64.2,29.82,NNW,338,0.0,0.0,82,0.00,,---,0.00,VWS V14.01,2013-09-26 01:20:00,
2013-09-25 20:25:00,69.7,64.7,29.85,NNW,338,0.0,0.0,84,0.00,,---,0.00,VWS V14.01,2013-09-26 01:25:00,
2013-09-25 20:30:00,69.7,65.0,29.85,NNW,338,0.0,0.0,85,0.00,,---,0.00,VWS V14.01,2013-09-26 01:30:00,
2013-09-25 20:35:00,69.5,64.8,29.85,NNW,338,0.0,0.0,85,0.00,,---,0.00,VWS V14.01,2013-09-26 01:35:00,
2013-09-25 20:40:00,69.4,64.7,29.85,NNW,338,0.0,0.0,85,0.00,,---,0.00,VWS V14.01,2013-09-26 01:40:00,
2013-09-25 20:45:00,69.2,64.2,29.85,NNW,338,0.0,0.0,84,0.00,,---,0.00,VWS V14.01,2013-09-26 01:45:00,
2013-09-25 20:50:00,69.0,64.0,29.85,NNW,338,0.0,0.0,84,0.00,,---,0.00,VWS V14.01,2013-09-26 01:50:00,
2013-09-25 20:55:00,68.8,64.5,29.85,NNW,338,0.0,0.0,86,0.00,,---,0.00,VWS V14.01,2013-09-26 01:55:00,
2013-09-25 21:00:00,68.8,64.5,29.85,NNW,338,0.0,0.0,86,0.00,,---,0.00,VWS V14.01,2013-09-26 02:00:00,
2013-09-25 21:05:00,68.8,64.5,29.85,NNW,338,0.0,0.0,86,0.00,,---,0.00,VWS V14.01,2013-09-26 02:05:00,
2013-09-25 21:10:00,68.6,64.3,29.85,NNW,338,0.0,0.0,86,0.00,,---,0.00,VWS V14.01,2013-09-26 02:10:00,
2013-09-25 21:15:00,68.5,64.1,29.85,NNW,338,0.0,0.0,86,0.00,,---,0.00,VWS V14.01,2013-09-26 02:15:00,
2013-09-25 21:20:00,68.5,64.1,29.85,NNW,338,0.0,0.0,86,0.00,,---,0.00,VWS V14.01,2013-09-26 02:20:00,
2013-09-25 21:25:00,68.3,63.9,29.85,NNW,338,0.0,0.0,86,0.00,,---,0.00,VWS V14.01,2013-09-26 02:25:00,
2013-09-25 21:30:00,68.1,63.8,29.85,NNW,338,0.0,0.0,86,0.00,,---,0.00,VWS V14.01,2013-09-26 02:30:00,
2013-09-25 21:35:00,68.1,64.1,29.85,NNW,338,0.0,0.0,87,0.00,,---,0.00,VWS V14.01,2013-09-26 02:35:00,
2013-09-25 21:40:00,68.1,64.4,29.85,NNW,338,0.0,0.0,88,0.00,,---,0.00,VWS V14.01,2013-09-26 02:40:00,
2013-09-25 21:45:00,67.9,64.2,29.85,NNW,338,0.0,0.0,88,0.00,,---,0.00,VWS V14.01,2013-09-26 02:45:00,
2013-09-25 21:50:00,67.9,63.9,29.85,NNW,338,0.0,0.0,87,0.00,,---,0.00,VWS V14.01,2013-09-26 02:50:00,
2013-09-25 21:55:00,67.7,64.1,29.85,NNW,338,0.0,0.0,88,0.00,,---,0.00,VWS V14.01,2013-09-26 02:55:00,
2013-09-25 22:00:00,67.7,64.1,29.85,NNW,338,0.0,0.0,88,0.00,,---,0.00,VWS V14.01,2013-09-26 03:00:00,
2013-09-25 22:05:00,67.6,63.9,29.85,NNW,338,0.0,0.0,88,0.00,,---,0.00,VWS V14.01,2013-09-26 03:05:00,
2013-09-25 22:10:00,67.6,63.9,29.85,NNW,338,0.0,0.0,88,0.00,,---,0.00,VWS V14.01,2013-09-26 03:10:00,
2013-09-25 22:15:00,67.4,63.4,29.85,NNW,338,0.0,0.0,87,0.00,,---,0.00,VWS V14.01,2013-09-26 03:15:00,
2013-09-25 22:20:00,67.4,63.7,29.85,NNW,338,0.0,0.0,88,0.00,,---,0.00,VWS V14.01,2013-09-26 03:20:00,
2013-09-25 22:25:00,67.2,63.5,29.85,NNW,338,0.0,0.0,88,0.00,,---,0.00,VWS V14.01,2013-09-26 03:25:00,
2013-09-25 22:30:00,67.2,63.8,29.85,NNW,338,0.0,0.0,89,0.00,,---,0.00,VWS V14.01,2013-09-26 03:30:00,
2013-09-25 22:35:00,67.0,63.7,29.85,NNW,338,0.0,0.0,89,0.00,,---,0.00,VWS V14.01,2013-09-26 03:35:00,
2013-09-25 22:40:00,67.0,63.7,29.85,NNW,338,0.0,0.0,89,0.00,,---,0.00,VWS V14.01,2013-09-26 03:40:00,
2013-09-25 22:45:00,66.8,63.5,29.85,NNW,338,0.0,0.0,89,0.00,,---,0.00,VWS V14.01,2013-09-26 03:45:00,
2013-09-25 22:50:00,66.8,63.8,29.85,NNW,338,0.0,0.0,90,0.00,,---,0.00,VWS V14.01,2013-09-26 03:50:00,
2013-09-25 22:55:00,66.8,63.8,29.85,NNW,338,0.0,0.0,90,0.00,,---,0.00,VWS V14.01,2013-09-26 03:55:00,
2013-09-25 23:00:00,66.7,63.3,29.85,NNW,338,0.0,0.0,89,0.00,,---,0.00,VWS V14.01,2013-09-26 04:00:00,
2013-09-25 23:01:00,66.7,63.3,29.85,NNW,338,0.0,0.0,89,0.00,,---,0.00,VWS V14.01,2013-09-26 04:01:00,
2013-09-25 23:06:00,66.5,63.5,29.85,NNW,338,0.0,0.0,90,0.00,,---,0.00,VWS V14.01,2013-09-26 04:06:00,
2013-09-25 23:11:00,66.5,63.5,29.85,NNW,338,0.0,0.0,90,0.00,,---,0.00,VWS V14.01,2013-09-26 04:11:00,
2013-09-25 23:16:00,66.5,63.5,29.85,NNW,338,0.0,0.0,90,0.00,,---,0.00,VWS V14.01,2013-09-26 04:16:00,
2013-09-25 23:21:00,66.3,63.3,29.85,NNW,338,0.0,0.0,90,0.00,,---,0.00,VWS V14.01,2013-09-26 04:21:00,
2013-09-25 23:26:00,66.1,62.8,29.85,NNW,338,0.0,0.0,89,0.00,,---,0.00,VWS V14.01,2013-09-26 04:26:00,
2013-09-25 23:31:00,65.9,62.6,29.85,NNW,338,0.0,0.0,89,0.00,,---,0.00,VWS V14.01,2013-09-26 04:31:00,
2013-09-25 23:36:00,65.9,62.6,29.85,NNW,338,0.0,0.0,89,0.00,,---,0.00,VWS V14.01,2013-09-26 04:36:00,
2013-09-25 23:41:00,65.9,62.9,29.85,NNW,338,0.0,0.0,90,0.00,,---,0.00,VWS V14.01,2013-09-26 04:41:00,
2013-09-25 23:46:00,65.8,62.8,29.85,NNW,338,0.0,0.0,90,0.00,,---,0.00,VWS V14.01,2013-09-26 04:46:00,
2013-09-25 23:51:00,65.8,62.8,29.85,NNW,338,0.0,0.0,90,0.00,,---,0.00,VWS V14.01,2013-09-26 04:51:00,
2013-09-25 23:56:00,65.8,62.8,29.85,NNW,338,0.0,0.0,90,0.00,,---,0.00,VWS V14.01,2013-09-26 04:56:00,